Content
SEND FEEDBACK

Daily
Averages
Monthly
Summary
United States of America

AMBROSE, NORTH DAKOTA


Home > North America > United States > North Dakota
Elevation: 628 meters     Latitude: 48 58N     Longitude: 103 28W

WEATHER
 
SELECT A DAY
Number of Records: 83,366;   Date Range: 11/18/10 - 7/27/14
 
SHARE

PRINT THIS DATA

[ ← Previous Day ]
WEATHER ALMANAC - 31 JANUARY, 2013
[ Next Day → ]
[ °F ]   °C
Weather ElementAverageHighLow
Temperature-26.7 °C (3:35 pm)-30 °C (5:55 am)
Dewpoint-30.4 °C (3:35 pm)-34 °C (7:15 am)
Humidity70 %78 % (11:55 pm)63 % (10:15 am)
Barometer1023 hPa1026.4 hPa (9:35 am)1016.9 hPa (11:55 pm)
Wind Speed20.8 km/h37 km/h (12:55 am)
Wind Gust44.4 km/h (12:55 am)
Weather ElementAverage
Visibility15.4 km
Wind DirectionW (270.6 °)

Weather ElementTotal
Precipitation---
Heating Degree Days42.2 (Base 18.3)
Averaged from 68 records on 31 January, 2013
WEATHER CONDITIONS BREAKOUT
WIND DIRECTION BREAKOUT
WEATHER BY HOUR - 31 JANUARY, 2013
[ °F ]   °C
Local TimeTemperatureDewpointHumidityBarometerVisibilityWind DirectionWind SpeedGust SpeedPrecipitationEventsConditions
12:35 AM-27 °C-31 °C70 %1020 hPa4.8 kmNNW (330°)35.2 km/hHaze
12:55 AM-27 °C-31 °C70 %1020.3 hPa6.4 kmNNW (340°)37 km/h44.4 km/hRainLight Rain
1:15 AM-27 °C-31 °C70 %1020.7 hPa14.5 kmNNW (330°)29.6 km/hMostly Cloudy
1:35 AM-28 °C-31 °C76 %1021 hPa14.5 kmNW (320°)29.6 km/h40.7 km/hMostly Cloudy
1:55 AM-28 °C-31 °C76 %1021.3 hPa16.1 kmNW (320°)27.8 km/hMostly Cloudy
2:15 AM-28 °C-32 °C70 %1021.7 hPa16.1 kmNW (320°)27.8 km/hScattered Clouds
2:35 AM-28 °C-32 °C70 %1022 hPa16.1 kmNW (320°)27.8 km/hScattered Clouds
2:55 AM-28 °C-32 °C70 %1022.4 hPa16.1 kmNW (320°)29.6 km/h38.9 km/hPartly Cloudy
3:15 AM-29 °C-32 °C76 %1022.7 hPa16.1 kmNW (310°)31.5 km/hClear
3:35 AM-29 °C-32 °C76 %1022.7 hPa16.1 kmNW (310°)27.8 km/hPartly Cloudy
3:55 AM-29 °C-32 °C76 %1023 hPa16.1 kmNW (310°)25.9 km/hMostly Cloudy
4:15 AM-29 °C-33 °C69 %1023 hPa16.1 kmNW (310°)24.1 km/hPartly Cloudy
4:35 AM-29 °C-33 °C69 %1023.4 hPa16.1 kmNW (310°)24.1 km/hClear
4:55 AM-29 °C-33 °C69 %1023.7 hPa16.1 kmNW (310°)22.2 km/hClear
5:15 AM-29 °C-33 °C69 %1024 hPa16.1 kmWNW (300°)24.1 km/hClear
5:35 AM-29 °C-33 °C69 %1024 hPa16.1 kmNW (310°)22.2 km/hClear
5:55 AM-30 °C-33 °C76 %1024.4 hPa16.1 kmWNW (300°)22.2 km/hClear
6:15 AM-30 °C-33 °C76 %1024.7 hPa16.1 kmWNW (300°)27.8 km/hClear
6:35 AM-30 °C-33 °C76 %1025.1 hPa16.1 kmWNW (300°)27.8 km/hClear
6:55 AM-30 °C-33 °C76 %1025.1 hPa16.1 kmNW (310°)25.9 km/hClear
7:15 AM-30 °C-34 °C69 %1025.4 hPa16.1 kmNW (310°)24.1 km/hClear
7:35 AM-30 °C-34 °C69 %1025.4 hPa16.1 kmWNW (300°)22.2 km/hClear
7:55 AM-30 °C-34 °C69 %1025.4 hPa16.1 kmWNW (300°)20.4 km/hClear
8:15 AM-30 °C-34 °C69 %1025.7 hPa16.1 kmWNW (290°)18.5 km/hClear
8:35 AM-30 °C-34 °C69 %1025.7 hPa16.1 kmWNW (290°)16.7 km/hClear
8:55 AM-30 °C-34 °C69 %1025.7 hPa16.1 kmWNW (300°)16.7 km/hClear
9:15 AM-30 °C-34 °C69 %1026.1 hPa16.1 kmWNW (290°)18.5 km/hClear
9:35 AM-30 °C-34 °C69 %1026.4 hPa16.1 kmWNW (290°)20.4 km/hClear
9:55 AM-29 °C-33 °C69 %1026.1 hPa16.1 kmWNW (290°)20.4 km/hClear
10:15 AM-29 °C-34 °C63 %1026.1 hPa16.1 kmWNW (290°)20.4 km/hClear
10:35 AM-29 °C-33 °C69 %1026.4 hPa16.1 kmWest (280°)18.5 km/hClear
10:55 AM-29 °C-33 °C69 %1026.4 hPa16.1 kmWest (280°)22.2 km/hClear
11:15 AM-28 °C-33 °C63 %1026.4 hPa16.1 kmWNW (290°)22.2 km/hClear
11:35 AM-28 °C-33 °C63 %1026.4 hPa16.1 kmWest (280°)22.2 km/hClear
11:55 AM-28 °C-32 °C70 %1026.4 hPa16.1 kmWest (280°)20.4 km/hClear
12:15 PM-28 °C-32 °C70 %1026.1 hPa16.1 kmWest (280°)18.5 km/hClear
12:35 PM-27 °C-32 °C64 %1026.1 hPa16.1 kmWest (270°)20.4 km/hClear
12:55 PM-27 °C-32 °C64 %1026.1 hPa16.1 kmWest (280°)16.7 km/hClear
1:15 PM-27 °C-31 °C70 %1025.7 hPaWest (280°)22.2 km/hClear
1:35 PM-26 °C-31 °C64 %1025.4 hPaWest (270°)20.4 km/hClear
1:55 PM-25 °C-30 °C64 %1025.1 hPaWest (270°)20.4 km/hClear
2:15 PM-25 °C-30 °C64 %1024.7 hPaWest (260°)22.2 km/hClear
2:35 PM-25 °C-30 °C64 %1024.4 hPaWest (270°)20.4 km/hClear
3:15 PM-25 °C-30 °C64 %1024.4 hPaWest (280°)20.4 km/hClear
3:35 PM-17.8 °C-17.8 °C1023.7 hPaWest (280°)20.4 km/h
3:55 PM-24 °C-29 °C64 %1023.7 hPaWest (280°)20.4 km/hClear
4:15 PM-17.8 °C-17.8 °C1023.7 hPaWest (270°)20.4 km/h
4:35 PM-25 °C-29 °C70 %1023.4 hPaWest (260°)16.7 km/hClear
4:55 PM-17.8 °C-17.8 °C1023 hPaWest (280°)14.8 km/h
5:15 PM-24 °C-29 °C64 %1022.7 hPaWSW (250°)13 km/hClear
5:35 PM-25 °C-29 °C70 %1023 hPaWest (260°)13 km/hClear
5:55 PM-25 °C-29 °C70 %1022.7 hPaWSW (240°)9.3 km/hClear
6:15 PM-26 °C-30 °C70 %1022.4 hPaSW (220°)9.3 km/hClear
6:35 PM-27 °C-30 °C76 %1022 hPaSSW (200°)11.1 km/hClear
6:55 PM-27 °C-30 °C76 %1022 hPaSSW (200°)9.3 km/hClear
7:15 PM-27 °C-30 °C76 %1021.7 hPaSSW (200°)11.1 km/hClear
7:35 PM-27 °C-31 °C70 %1021.3 hPaSSW (210°)11.1 km/hClear
7:55 PM-27 °C-31 °C70 %1021 hPaSouth (190°)13 km/hClear
8:15 PM-27 °C-31 °C70 %1020.7 hPaSouth (190°)13 km/hClear
8:35 PM-27 °C-31 °C70 %1020.7 hPaSouth (180°)9.3 km/hClear
9:15 PM-25 °C-29 °C70 %1019.6 hPaSSW (200°)16.7 km/hOvercast
9:35 PM-24 °C-28 °C70 %1019.3 hPaSSW (200°)13 km/hOvercast
10:15 PM-22 °C-26 °C71 %1018.6 hPaSSW (200°)16.7 km/hOvercast
10:35 PM-22 °C-25 °C77 %1018.3 hPaSSW (200°)22.2 km/hOvercast
10:55 PM-21 °C-25 °C71 %1017.9 hPaSSW (200°)18.5 km/hSnowHeavy Snow
11:15 PM-20 °C-24 °C71 %1017.6 hPaSouth (190°)18.5 km/hSnowHeavy Snow
11:35 PM-20 °C-24 °C71 %1017.3 hPaSSW (200°)24.1 km/hOvercast
11:55 PM-20 °C-23 °C78 %1016.9 hPaSSW (200°)25.9 km/hOvercast
Hourly data recorded from KD50, located 0 kilometers away from Ambrose, North Dakota







STORIES FROM OUR PARTNERS